www.pogodaiklimat.ru

Погода и климат >> Архив погоды >> Китай >> Синьцзян-Уйгурский автономный район >> Чарклык


ПОГОДА в Чарклыке

  • Прогноз погоды в Чарклыке
  • Монитор погоды в Чарклыке

АРХИВ ПОГОДЫ в Чарклыке

Время (UTC), дата Ветер
(напр.,м/с)
 
Видим.   Явления Облачность Т
(С)
Тd
(С)
f
(%)
Тe
(С)
Тes
(С)
Комфортность P
(гПа)
Po
(гПа)
Тmin
(С)
Tmax
(С)
R
(мм)
R24
(мм)
S
(см)
21 12.05 ЮЗ 1 20 км н/о +10.6 +3.9 63 +11 +11 1007.1 904.8
00 13.05 Ю 1 13 км 9/9
[]
+11.1 +4.3 63 +11 +11 1007.5 908.6
03 13.05 С 1 14 км 9/9
[]
+17.9 -0.9 28 +19 +20 1007.5 907.6
06 13.05 СВ 2 22 км ясно +27.6 -4.3 12 +25 +44 комфорт 1005.0 907.2 +10.2
09 13.05 Ю 1 30 км 4/4
[]
+30.3 -7.6 8 +26 +35 жарко 1002.2 906.7
12 13.05 С 2 29 км 10/10 1500 м
[]
+26.5 -4.1 13 +24 +24 комфорт 1002.1 903.7
15 13.05 Ю 1 18 км н/о +18.1 +8.9 55 +19 +19 1004.1 904.6
18 13.05 Ю 2 н/о мгла ?/? +17.9 +1.8 34 +18 +18 1004.3 906.9 +30.8
21 13.05 штиль 0 6000 м мгла н/о +15.1 +5.6 53 +15 +15 1004.3 903.8
00 14.05 ЮЗ 2 7000 м пыль 10/10
[]
+16.4 +2.1 38 +17 +17 1005.4 907.5
03 14.05 ЮЗ 2 6000 м пыль 9/9
[]
+23.8 +2.6 25 +23 +24 комфорт 1006.5 908.6
06 14.05 З 2 16 км 9/9
[]
+28.7 -2.4 13 +26 +28 жарко 1005.0 907.7 +13.5
09 14.05 З 3 13 км ясно +29.6 +0.3 15 +27 +37 жарко 1003.8 908.0
12 14.05 З 1 16 км ясно +28.1 -0.9 15 +26 +27 жарко 1004.0 906.5
15 14.05 В 2 14 км н/о +16.6 +11.1 70 +17 +17 1006.3 906.1
18 14.05 В 1 н/о мгла ?/? +16.2 +6.1 51 +17 +17 1005.6 908.0 +30.4
21 14.05 ЮВ 1 7000 м дымка н/о +12.3 +7.6 73 +12 +12 1005.1 903.6
00 15.05 СЗ 1 9000 м 9/9
[]
+12.5 +6.1 65 +13 +13 1006.8 908.4
03 15.05 З 2 5000 м пыль ясно +19.9 +5.9 40 +21 +33 комфорт 1007.6 908.4
06 15.05 С 2 11 км ясно +28.9 +3.7 20 +27 +47 жарко 1003.9 906.5 +12.0
09 15.05 СВ 1 14 км ясно +31.9 -2.2 11 +28 +43 жарко 1001.4 906.5
12 15.05 штиль 0 14 км ясно +27.3 +11.3 37 +28 +30 жарко 1000.8 902.9
15 15.05 ЮВ 2 12 км н/о +19.1 +5.9 42 +20 +20 1001.2 902.3
18 15.05 Ю 2 17 км ?/? +15.0 +8.3 64 +15 +15 998.6 901.5 +32.4
21 15.05 С 2 18 км н/о +15.5 +5.7 52 +16 +16 999.2 899.4
00 16.05 ЮЗ 1 11 км 9/9 2000 м
[]
+17.5 +4.5 42 +19 +19 999.7 902.7
03 16.05 З 3 10 км 8/8
[]
+26.8 -1.1 16 +25 +26 комфорт 1000.5 904.1
06 16.05 З 3 30 км 3/3
[]
+32.7 -7.6 7 +28 +40 жарко 997.9 901.5 +14.1
09 16.05 З 5 30 км 3/3
[]
+34.3 -4.6 8 +30 +35 жарко 994.8 901.2
12 16.05 З 1 29 км 9/9
[]
+28.3 +14.2 42 +30 +31 жарко 994.1 897.8
15 16.05 В 1 23 км н/о +19.4 +14.0 71 +22 +22 комфорт 994.9 896.8
18 16.05 З 1 24 км ?/? +15.2 +9.8 70 +16 +16 994.5 898.5 +35.0
21 16.05 В 4 300 м мгла н/о +14.9 -1.6 32 +14 +14 997.3 897.5
00 17.05 В 5 2500 м пыль 9/9
[]
+14.2 -2.7 31 +13 +13 1000.8 903.3
03 17.05 СВ 5 14 км 3/3
[]
+20.0 -1.2 24 +20 +24 1001.7 903.1
06 17.05 В 5 4000 м пыльный позёмок 3/3
[]
+23.9 -0.4 20 +23 +30 комфорт 1001.6 903.5 +14.1
09 17.05 СВ 4 11 км ясно +27.8 -2.1 14 +25 +34 комфорт 998.8 902.9
12 17.05 В 4 2300 м пыльный позёмок ясно +26.1 -2.5 15 +24 +25 комфорт 1000.1 902.3
15 17.05 СВ 7
{18}
900 м мгла ?/? +19.9 -5.9 17 +19 +19 1004.1 905.2
18 17.05 СВ 5
{18}
7000 м ?/? +16.8 -5.0 22 +16 +16 1007.4 909.0 +28.4
21 17.05 СВ 4 2100 м мгла н/о +13.1 -5.5 27 +12 +12 1009.5 907.8
00 18.05 В 7 4700 м пыльный позёмок ясно +13.1 -5.5 27 +11 +11 1011.9 912.8
03 18.05 В 8
{18}
2600 м пыльный позёмок 9/9
[]
+16.5 -5.3 22 +15 +15 1012.9 912.0
06 18.05 СВ 9
{18}
2200 м пыльный позёмок 9/9
[]
+21.3 -5.5 16 +20 +20 1010.8 911.6 +12.3
09 18.05 СВ 10
{20}
2100 м пыльный позёмок 9/9
[]
+23.7 -9.7 10 +21 +21 комфорт 1007.7 909.7
12 18.05 В 8
{20}
2600 м пыльный позёмок 9/9
[]
+22.6 -13.3 8 +20 +20 1007.1 907.9
15 18.05 СВ 5
{20}
700 м мгла ?/? +16.8 -15.0 10 +16 +16 1010.4 909.9
18 18.05 С 2 800 м мгла ?/? +12.8 -13.2 15 +13 +13 1012.7 912.7 +23.9
21 18.05 штиль 0 800 м мгла н/о +8.6 -1.0 51 +8 +8 1015.8 912.0
00 19.05 С 1 1200 м пыль 9/9
[]
+7.9 -5.2 39 +8 +8 1017.7 916.6
03 19.05 С 1 2300 м пыль 10/10
[]
+11.7 -8.7 23 +12 +12 1019.3 916.2
06 19.05 Ю 1 2000 м пыль 10/10
[]
+17.7 -12.1 12 +19 +19 1018.2 917.1 +6.2
09 19.05 С 2 8000 м 9/9
[]
+21.6 -14.1 8 +20 +21 1016.4 916.9
12 19.05 В 1 16 км 9/9
[]
+18.7 +4.1 38 +20 +20 1016.8 915.2
15 19.05 С 1 4200 м дымка н/о +13.1 +7.3 68 +13 +13 1016.5 914.1
18 19.05 ЮЗ 1 6000 м дымка ?/? +8.8 +5.9 82 +8 +8 1016.5 914.9 +22.5

 

Местоположение метеостанции Чарклык (Синьцзян-Уйгурский автономный район, Китай): широта 39.03 долгота 88.17 высота над уровнем моря 889 м.

В архиве по умолчанию представлена погода в Чарклыке за последнюю неделю. Архивные данные за месяц целиком и за предыдущие месяцы, начиная с января 2011 года, Вы можете получить, выбрав интересующий диапазон дат из раскрывающегося списка и нажав кнопку "Ввод!".


*Определитесь, кто Вы:
робот инопланетянин человек

Внимание! Время в таблицах - всемирное. Для получения местного времени необходимо прибавить поправку, которая равна 8 ч.

Смотрите также архив погоды в соседних городах и на ближайших метеорологических станциях:

Погода в Тиканлике (Синьцзян-Уйгурский автономный район, Китай) (182 км)
Погода в Маннае (Цинхай, Китай) (248 км)
Погода в Корле (Синьцзян-Уйгурский автономный район, Китай) (348 км)
Погода в Тажонге (Синьцзян-Уйгурский автономный район, Китай) (389 км)
Погода в Балун Тай Кун (Синьцзян-Уйгурский автономный район, Китай) (433 км)
Погода в Турфане (Синьцзян-Уйгурский автономный район, Китай) (442 км)
Погода в Лэнху (Цинхай, Китай) (451 км)
Погода в Урумчи (Синьцзян-Уйгурский автономный район, Китай) (532 км)
Погода в Куче (Синьцзян-Уйгурский автономный район, Китай) (534 км)
Погода в Цзяньфане (Синьцзян-Уйгурский автономный район, Китай) (553 км)

Пояснения к столбцам:

Ветер - указаны скорость ветра в м/с - средняя за 10 мин, порывы в срок и между сроками (в фигурных скобках) и направление, откуда дует ветер: С - северный, СВ - северо-восточный, В - восточный, ЮВ - юго-восточный, Ю - южный, ЮЗ - юго-западный, З - западный, СЗ - северо-западный.
Видимость - горизонтальная дальность видимости в метрах или километрах. При видимости от 1 до 10 км при отсутствии осадков обычно наблюдается дымка, при ухудшении видимости до 1 км и менее - туман. В сухую погоду видимость может ухудшаться дымом, пылью или мглою.
Явления - указаны атмосферные явления, наблюдавшиеся в срок или в последний час перед сроком; фигурными скобками обозначены явления, наблюдавшиеся между сроками (за 1-3 часа до срока); квадратными скобками обозначены град или гололедные отложения с указанием их диаметра в мм.
Облачность - указаны через наклонную черту общая и нижняя облачность в баллах и высота нижней границы облаков в метрах; квадратными скобками обозначены формы облаков: Ci - перистые, Cs - перисто-слоистые, Cc - перисто-кучевые, Ac - высококучевые, As - высокослоистые, Sc - слоисто-кучевые, Ns - слоисто-дождевые, Cu - кучевые, Cb - кучево-дождевые. Подробнее классификацию облаков см. в Атласе облаков (PDF).
T - Температура воздуха - температура, измеренная на высоте 2 м над землей.
Td - Температура точки росы - температура, при понижении до которой содержащийся в воздухе водяной пар достигнет насыщения.
f - Относительная влажность воздуха - влажноcть воздуха, измеренная на высоте 2 м над землей.
Te - Эффективная температура - температура, которую ощущает одетый по сезону человек в тени. Характеристика душности погоды. При расчете учитывается влияние влажности воздуха и скорости ветра на теплоощущения человека.
Tes - Эффективная температура на солнце - температура, которую ощущает человек, с поправкой на солнечный нагрев. Характеристика знойности погоды. Зависит от высоты солнца над горизонтом, облачности и скорости ветра. Ночью, в пасмурную погоду, а также при ветре 12 м/с и более поправка равна нулю.
P - Атмосферное давление - приведенное к уровню моря атмосферное давление.
Po - Атмосферное давление - измеренное на уровне метеостанции атмосферное давление.
Tmin - Минимальная температура - минимум температуры воздуха на высоте 2 м над землей.
Tmax - Максимальная температура - максимум температуры воздуха на высоте 2 м над землей.
R - Количество осадков - Количество выпавших осадков за период времени, мм. При наведении курсора мыши на число - период времени, за который выпало указанное количество осадков.
R24 - Количество осадков - Количество выпавших осадков за 24 часа, мм.
S - Снежный покров - Высота снежного покрова, см. При наведении курсора мыши на число - состояние снежного покрова и степень покрытия местности в баллах.